Home > Weather > North Bay > Past weeks

Flag for Canada Past Weather in North Bay, Ontario, Canada — Yesterday and Last 2 Weeks

Now
59 °F

Partly sunny.


Feels Like: 57 °F
Forecast: 57 / 72 °F
Wind: 9 mph from Northeast

Location: North Bay

Current Time: May 25, 2016 at 11:03:32 AM

Latest Report: May 25, 2016 at 10:00 AM


Visibility: 30 mi

Pressure: 30.06 "Hg

Humidity: 68%

Dew Point: 48 °F

Location of North BayLocation

Past Weather in North Bay — Graph

°F

North Bay Temperature Yesterday

Maximum temperature yesterday: 81 °F (at 4:00 PM)
Minimum temperature yesterday: 46 °F (at 5:00 AM)
Average temperature yesterday: 64 °F

High & Low Weather Summary for the Past Weeks

 TemperatureHumidityPressure
High81 °F (May 24, 4:00 PM)100% (May 13, 4:04 AM)30.31 "Hg (May 13, 4:04 AM)
Low28 °F (May 17, 6:00 AM)14% (May 11, 3:00 PM)29.56 "Hg (May 14, 1:00 PM)
Average53 °F55%30.01 "Hg
* Reported May 10 9:00 AM — May 25 9:00 AM, North Bay, Weather by CustomWeather, © 2016

Note: Actual official high and low records may vary slightly from our data, if they occured in-between our weather recording intervals... More about our weather records

Advertising

North Bay Weather History for the Previous 24 Hours

Scroll right to see more
 ConditionsComfort  
Time TempWeatherWind HumidityBarometerVisibility
9:00 AM
Wed, May 25
57 °FScattered clouds.8 mph72%30.06 "Hg30 mi
8:00 AM54 °FPartly sunny.10 mph82%30.04 "Hg30 mi
7:00 AM54 °FPartly sunny.9 mph82%30.00 "Hg30 mi
6:45 AM54 °FOvercast.10 mph82%29.99 "Hg30 mi
6:00 AM55 °FOvercast.9 mph77%29.98 "Hg9 mi
5:00 AM55 °FMostly cloudy.5 mph77%29.97 "Hg9 mi
4:00 AM57 °FOvercast.7 mph72%29.96 "Hg9 mi
3:03 AM57 °FOvercast.8 mph72%29.96 "Hg9 mi
2:04 AM59 °FLight rain. Mostly cloudy.12 mph68%29.94 "Hg9 mi
1:00 AM61 °FMostly cloudy.12 mph63%29.93 "Hg9 mi
12:00 AM61 °FMostly cloudy.7 mph52%29.95 "Hg9 mi
11:00 PM
Tue, May 24
63 °FClear.5 mph45%29.94 "Hg9 mi
10:00 PM66 °FPassing clouds.8 mph40%29.94 "Hg15 mi
9:00 PM68 °FScattered clouds.7 mph38%29.92 "Hg15 mi
8:00 PM73 °FPartly sunny.12 mph33%29.91 "Hg15 mi
7:00 PM75 °FPartly sunny.9 mph31%29.90 "Hg15 mi
6:00 PM79 °FScattered clouds.15 mph26%29.90 "Hg15 mi
5:00 PM81 °FScattered clouds.16 mph26%29.90 "Hg15 mi
4:00 PM81 °FPassing clouds.18 mph26%29.91 "Hg15 mi
3:00 PM79 °FSunny.12 mph24%29.93 "Hg15 mi
2:00 PM77 °FSunny.8 mph21%29.94 "Hg30 mi
1:00 PM75 °FSunny.10 mph27%29.95 "Hg30 mi
12:00 PM72 °FSunny.8 mph29%29.96 "Hg30 mi
11:00 AM68 °FSunny.7 mph28%29.97 "Hg30 mi
Weather by CustomWeather, © 2016

See weather overviewHow to use our weather pages